Home > Weather > Saint Helier > Past weeks

Flag for Jersey Past Weather in Saint Helier, Jersey — Yesterday and Last 2 Weeks

Now
63 °F

Overcast.


Feels Like: 63 °F
Forecast: 60 / 66 °F
Wind: 3 mph from Southwest

Location: Dinard Airport

Current Time: Jul 30, 2016 at 3:05:56 AM

Latest Report: Jul 30, 2016 at 2:30 AM


Visibility: N/A

Pressure: 29.98 "Hg

Humidity: 88%

Dew Point: 59 °F

Location of Saint HelierLocation

Past Weather in Saint Helier — Graph

°F

Saint Helier Temperature Yesterday

Maximum temperature yesterday: 70 °F (at 2:00 PM)
Minimum temperature yesterday: 61 °F (at 4:00 AM)
Average temperature yesterday: 64 °F

High & Low Weather Summary for the Past Weeks

 TemperatureHumidityPressure
High95 °F (Jul 19, 2:00 PM)100% (Jul 15, 3:00 AM)30.42 "Hg (Jul 15, 3:00 AM)
Low48 °F (Jul 15, 3:00 AM)32% (Jul 19, 4:00 PM)29.80 "Hg (Jul 19, 11:00 PM)
Average66 °F78%30.13 "Hg
* Reported Jul 15 2:00 AM — Jul 30 2:00 AM, Saint Helier, Weather by CustomWeather, © 2016

Note: Actual official high and low records may vary slightly from our data, if they occured in-between our weather recording intervals... More about our weather records

Advertising

Saint Helier Weather History for the Previous 24 Hours

Scroll right to see more
 ConditionsComfort  
Time TempWeatherWind HumidityBarometerVisibility
2:00 AM
Sat, Jul 30
63 °FMostly cloudy.3 mph88%29.98 "HgN/A
1:30 AM63 °FOvercast.3 mph88%29.98 "HgN/A
1:00 AM63 °FMostly cloudy.3 mph88%29.98 "HgN/A
12:30 AM63 °FMostly cloudy.2 mph88%29.98 "HgN/A
12:00 AM63 °FMostly cloudy.3 mph83%29.98 "HgN/A
11:30 PM
Fri, Jul 29
63 °FMostly cloudy.3 mph88%29.98 "HgN/A
11:00 PM63 °FOvercast.3 mph83%29.98 "HgN/A
10:30 PM63 °FOvercast.3 mph83%29.98 "HgN/A
10:00 PM63 °FOvercast.5 mph83%29.98 "HgN/A
9:30 PM63 °FOvercast.6 mph83%29.98 "HgN/A
9:00 PM63 °FMild.5 mph83%29.98 "HgN/A
8:30 PM63 °FOvercast.6 mph83%29.98 "HgN/A
8:00 PM64 °FMild.8 mph83%29.98 "HgN/A
7:30 PM64 °FMild.8 mph83%29.98 "HgN/A
7:00 PM64 °FMild.7 mph78%29.98 "HgN/A
6:30 PM66 °FPartly sunny.8 mph73%29.98 "HgN/A
6:00 PM68 °FBroken clouds.8 mph69%29.98 "HgN/A
5:30 PM66 °FPartly sunny.8 mph73%29.98 "HgN/A
5:00 PM68 °FOvercast.10 mph69%29.98 "HgN/A
4:30 PM68 °FMild.8 mph69%29.98 "HgN/A
4:00 PM70 °FPartly sunny.12 mph69%29.98 "HgN/A
3:30 PM68 °FMore clouds than sun.13 mph73%29.98 "HgN/A
3:00 PM70 °FMore clouds than sun.3 mph64%29.98 "HgN/A
2:30 PM70 °FMore clouds than sun.7 mph69%29.98 "HgN/A
2:00 PM70 °FOvercast.8 mph64%29.98 "HgN/A
1:30 PM68 °FOvercast.9 mph69%29.98 "HgN/A
1:00 PM68 °FMore clouds than sun.10 mph69%29.98 "HgN/A
12:30 PM68 °FMostly cloudy.8 mph64%29.98 "HgN/A
12:00 PM66 °FMostly cloudy.10 mph73%29.98 "HgN/A
11:30 AM66 °FOvercast.8 mph73%29.98 "HgN/A
11:00 AM66 °FOvercast.10 mph73%29.98 "HgN/A
10:30 AM64 °FBroken clouds.7 mph83%29.98 "HgN/A
10:00 AM63 °FBroken clouds.5 mph94%29.98 "HgN/A
9:30 AM61 °FLow clouds.7 mph94%29.98 "HgN/A
9:00 AM61 °FLight rain. Fog.8 mph94%29.98 "Hg2 mi
8:30 AM61 °FDrizzle. Fog.3 mph94%29.98 "Hg2 mi
8:00 AM61 °FDrizzle. Fog.7 mph94%29.98 "Hg2 mi
7:30 AM63 °FMostly cloudy.6 mph88%29.98 "HgN/A
7:00 AM63 °FOvercast.5 mph88%29.98 "HgN/A
6:30 AM61 °FOvercast.5 mph83%29.98 "HgN/A
6:00 AM61 °FOvercast.5 mph88%29.98 "HgN/A
5:30 AM61 °FMostly cloudy.6 mph88%29.98 "HgN/A
5:00 AM61 °FMostly cloudy.8 mph94%29.98 "HgN/A
4:30 AM61 °FMostly cloudy.6 mph94%29.98 "HgN/A
4:00 AM61 °FMostly cloudy.8 mph94%29.98 "HgN/A
3:30 AM63 °FLow clouds.8 mph88%29.98 "HgN/A
3:00 AM64 °FPartly cloudy.8 mph88%29.98 "HgN/A
Weather by CustomWeather, © 2016

See weather overviewHow to use our weather pages